World > North America > United States > Pennsylvania

Boswell, Pennsylvania Regional Weather

Lat: 40.16N, Lon: 79.03W
Wx Zone: PAZ033Web Search

If you are on your PC, you can easily pass this page to your phone by scanning the QR Code near the bottom with your camera.

Feedback


°F Click to change Boswell hourly weather to Imperial units.Click to change Boswell hourly weather to Metric units. °C
Boswell Weather Map
UTC Time: 5/17/2021, 19:11
Your Time:

Boswell, PA Regional Weather

Expires:202105172000;;269443
ASUS41 KCTP 171910
RWRCTP

REGIONAL WEATHER ROUNDUP
NATIONAL WEATHER SERVICE STATE COLLEGE PA
300 PM EDT MON MAY 17 2021

Note: "fair" indicates few or no clouds below 12,000 feet with no 
significant weather and/or obstructions to visibility.

* = STATION THAT DOES NOT REPORT PRECIPITATION /E.G. RAIN...SNOW...ETC/
    THUNDER OR FOG.


PAZ004>006-010>012-017>019-024>028-033>037-041-042-045-046-049>053-172000-
CENTRAL PENNSYLVANIA
  
CITY           SKY/WX    TMP DP  RH WIND       PRES   REMARKS
BRADFORD       MOSUNNY   68  36  30 SW3       30.27F                  
ST MARYS       MOCLDY    66  43  42 CALM      30.31S                  
DUBOIS         MOSUNNY   68  42  38 VRB3      30.27F                  
CLEARFIELD     MOSUNNY   70  42  36 MISG      30.28F                  
JOHNSTOWN      PTSUNNY   65  42  43 S10       30.28S                  
SOMERSET       FAIR      63  37  39 CALM      30.29S                  
ALTOONA        PTSUNNY   69  43  38 VRB5      30.29F                  
STATE COLLEGE  MOSUNNY   68  45  42 CALM      30.29F                  
REEDSVILLE     MOCLDY    72 -35   1 VRB7      30.28F                  
WELLSBORO      FAIR      68  39  34 VRB5G15   30.28F                  
WILLIAMSPORT   MOSUNNY   73  40  30 W5        30.26F                  
SELINSGROVE    MOSUNNY   72  43  35 S13G18    30.28F                  
FT INDIANTOWN  PTSUNNY   76  43  30 SW10      30.29F                  
CAPITAL CITY   MOSUNNY   73  45  36 VRB5      30.29F                  
HARRISBURG     PTSUNNY   74  45  35 SE8       30.29F                  
YORK           NOT AVBL                                               
$$


SKY/WX - Weather  TMP - Temperature  DP - Dew Point  RH - Relative Humidity
WIND - Wind Direction/Speed PRES - Barometric Pressure VSB - Visibility
WCI - Wind Chill Index E13G22 Wind - East Wind 13 mph/Gusts of 22 mph